TimeMDT,TemperatureF,Dew PointF,Humidity,Sea Level PressureIn,VisibilityMPH,Wind Direction,Wind SpeedMPH,Gust SpeedMPH,PrecipitationIn,Events,Conditions,WindDirDegrees,DateUTC
12:15 AM,48.2,39.2,71,29.87,10.0,West,10.4,24.2,N/A,,Clear,270,2012-11-01 06:15:00
12:35 AM,48.2,39.2,71,29.88,10.0,WNW,10.4,-,N/A,,Clear,290,2012-11-01 06:35:00
1:15 AM,48.2,39.2,71,29.88,10.0,NNW,3.5,-,N/A,,Clear,340,2012-11-01 07:15:00
1:35 AM,46.4,39.2,76,29.89,10.0,Calm,Calm,-,N/A,,Clear,0,2012-11-01 07:35:00
1:55 AM,46.4,39.2,76,29.89,10.0,Calm,Calm,-,N/A,,Clear,0,2012-11-01 07:55:00
2:15 AM,46.4,39.2,76,29.88,10.0,ENE,5.8,-,N/A,,Clear,70,2012-11-01 08:15:00
2:35 AM,46.4,39.2,76,29.89,10.0,East,3.5,-,N/A,,Clear,80,2012-11-01 08:35:00
2:55 AM,46.4,39.2,76,29.90,10.0,ENE,6.9,-,N/A,,Scattered Clouds,60,2012-11-01 08:55:00
3:15 AM,48.2,39.2,71,29.90,10.0,NE,6.9,-,N/A,,Overcast,50,2012-11-01 09:15:00
3:35 AM,48.2,39.2,71,29.91,10.0,SE,4.6,-,N/A,,Overcast,130,2012-11-01 09:35:00
4:15 AM,50.0,39.2,66,29.92,10.0,NNW,8.1,-,N/A,,Overcast,330,2012-11-01 10:15:00
4:35 AM,51.8,39.2,62,29.93,10.0,South,4.6,-,N/A,,Overcast,190,2012-11-01 10:35:00
4:55 AM,51.8,39.2,62,29.93,10.0,North,5.8,-,N/A,,Overcast,350,2012-11-01 10:55:00
5:15 AM,51.8,39.2,62,29.93,10.0,East,3.5,-,N/A,,Overcast,80,2012-11-01 11:15:00
6:15 AM,50.0,41.0,71,29.94,10.0,ENE,6.9,-,N/A,,Overcast,60,2012-11-01 12:15:00
6:35 AM,50.0,41.0,71,29.94,10.0,NE,9.2,-,N/A,,Overcast,50,2012-11-01 12:35:00
6:55 AM,50.0,39.2,66,29.94,10.0,East,6.9,-,N/A,,Overcast,90,2012-11-01 12:55:00
7:35 AM,48.2,39.2,71,29.94,10.0,NNE,8.1,-,N/A,,Scattered Clouds,30,2012-11-01 13:35:00
7:55 AM,48.2,39.2,71,29.93,10.0,NE,6.9,-,N/A,,Mostly Cloudy,50,2012-11-01 13:55:00
8:35 AM,48.2,39.2,71,29.94,10.0,East,4.6,-,N/A,,Overcast,100,2012-11-01 14:35:00
8:55 AM,48.2,39.2,71,29.95,10.0,SE,5.8,-,N/A,,Overcast,140,2012-11-01 14:55:00
9:35 AM,48.2,39.2,71,29.96,10.0,SSE,6.9,-,N/A,,Overcast,160,2012-11-01 15:35:00
10:15 AM,50.0,39.2,66,29.97,10.0,SE,3.5,-,N/A,,Overcast,130,2012-11-01 16:15:00
10:35 AM,51.8,41.0,67,29.97,10.0,SE,5.8,-,N/A,,Mostly Cloudy,140,2012-11-01 16:35:00
10:55 AM,53.6,41.0,62,29.97,10.0,South,4.6,-,N/A,,Scattered Clouds,170,2012-11-01 16:55:00
11:15 AM,53.6,41.0,62,29.97,10.0,SSE,5.8,-,N/A,,Mostly Cloudy,160,2012-11-01 17:15:00
11:35 AM,55.4,41.0,58,29.98,10.0,Calm,Calm,-,N/A,,Mostly Cloudy,0,2012-11-01 17:35:00
11:55 AM,57.2,42.8,59,29.99,10.0,West,4.6,-,N/A,,Partly Cloudy,260,2012-11-01 17:55:00
3:15 PM,62.6,39.2,42,29.96,10.0,NW,15.0,23.0,N/A,,Mostly Cloudy,310,2012-11-01 21:15:00
3:35 PM,62.6,37.4,39,29.95,10.0,NNW,6.9,-,N/A,,Scattered Clouds,340,2012-11-01 21:35:00
3:55 PM,62.6,37.4,39,29.95,10.0,NNE,5.8,-,N/A,,Clear,30,2012-11-01 21:55:00
4:15 PM,62.6,39.2,42,29.95,10.0,NNE,12.7,-,N/A,,Scattered Clouds,30,2012-11-01 22:15:00
4:55 PM,59.0,37.4,45,29.97,10.0,NE,10.4,-,N/A,,Mostly Cloudy,50,2012-11-01 22:55:00
5:15 PM,57.2,39.2,51,29.97,10.0,ENE,5.8,-,N/A,,Scattered Clouds,70,2012-11-01 23:15:00
5:35 PM,59.0,39.2,48,29.97,10.0,East,5.8,-,N/A,,Partly Cloudy,80,2012-11-01 23:35:00
5:55 PM,57.2,39.2,51,29.98,10.0,East,3.5,-,N/A,,Partly Cloudy,90,2012-11-01 23:55:00
6:15 PM,57.2,37.4,48,29.98,10.0,East,4.6,-,N/A,,Clear,80,2012-11-02 00:15:00
6:35 PM,55.4,37.4,51,29.98,10.0,East,6.9,-,N/A,,Clear,100,2012-11-02 00:35:00
6:55 PM,53.6,37.4,54,29.98,10.0,East,6.9,-,N/A,,Clear,90,2012-11-02 00:55:00
7:15 PM,51.8,35.6,54,29.99,10.0,Calm,Calm,-,N/A,,Clear,0,2012-11-02 01:15:00
7:35 PM,51.8,35.6,54,30.00,10.0,ESE,3.5,-,N/A,,Clear,110,2012-11-02 01:35:00
7:55 PM,51.8,35.6,54,30.00,10.0,SSE,3.5,-,N/A,,Clear,160,2012-11-02 01:55:00
8:15 PM,50.0,35.6,58,30.01,10.0,SSW,3.5,-,N/A,,Clear,200,2012-11-02 02:15:00
8:55 PM,48.2,35.6,62,30.01,10.0,Calm,Calm,-,N/A,,Overcast,0,2012-11-02 02:55:00
9:15 PM,48.2,35.6,62,30.01,10.0,Calm,Calm,-,N/A,,Overcast,0,2012-11-02 03:15:00
9:35 PM,48.2,37.4,66,30.02,10.0,Calm,Calm,-,N/A,,Overcast,0,2012-11-02 03:35:00
9:55 PM,48.2,37.4,66,30.03,10.0,Calm,Calm,-,N/A,,Overcast,0,2012-11-02 03:55:00
10:15 PM,48.2,37.4,66,30.03,10.0,Calm,Calm,-,N/A,,Mostly Cloudy,0,2012-11-02 04:15:00
10:35 PM,46.4,35.6,66,30.04,10.0,Calm,Calm,-,N/A,,Mostly Cloudy,0,2012-11-02 04:35:00
10:55 PM,44.6,33.8,66,30.05,10.0,North,5.8,-,N/A,,Mostly Cloudy,360,2012-11-02 04:55:00
11:15 PM,44.6,35.6,71,30.05,10.0,North,3.5,-,N/A,,Scattered Clouds,10,2012-11-02 05:15:00
11:35 PM,42.8,35.6,76,30.06,10.0,Calm,Calm,-,N/A,,Partly Cloudy,0,2012-11-02 05:35:00
11:55 PM,44.6,35.6,71,30.06,10.0,SSE,3.5,-,N/A,,Clear,160,2012-11-02 05:55:00